K1VL Weather Reports


time (UTC)temp
C
wind
direction
speed
KPH
gust
KPH
rain 1hr
cm
rain 24hr
cm
rain mn
cm
humidity
%
barometer
mb
20260507045017 3 0.0 1.6 0.00 2.11 0.00 100 1009.1
20260507044517 3 0.0 3.2 0.00 2.11 0.00 100 1009.4
20260507044017 3 293 1.6 4.8 0.00 2.11 0.00 100 1009.5
20260507043537 3 315 1.6 4.8 0.00 2.11 0.00 100 1009.3
20260507043017 4 315 1.6 4.8 0.00 2.11 0.00 100 1009.1
20260507042517 4 0.0 1.6 0.00 2.11 0.00 100 1009.0
20260507042017 4 0.0 0.0 0.00 2.11 0.00 100 1008.8
20260507041517 4 0.0 3.2 0.00 2.11 0.00 100 1008.7
20260507041017 4 0.0 1.6 0.00 2.11 0.00 100 1008.9
20260507040517 4 0.0 0.0 0.00 2.11 0.00 100 1009.0
20260507040017 4 0.0 0.0 0.00 2.11 2.11 100 1009.0
20260507035517 4 0.0 0.0 0.00 2.11 2.11 100 1009.1
20260507035017 4 0.0 1.6 0.00 2.11 2.11 100 1009.2
20260507034511 4 0.0 0.0 0.00 2.11 2.11 100 1009.0
20260507034017 4 0.0 0.0 0.00 2.11 2.11 100 1008.9
20260507033517 4 0.0 0.0 0.00 2.11 2.11 100 1008.9
20260507033017 4 0.0 1.6 0.00 2.11 2.11 100 1009.0
20260507032517 4 0.0 1.6 0.00 2.11 2.11 100 1009.1
20260507032037 4 0.0 0.0 0.00 2.11 2.11 100 1009.1
20260507031517 4 0.0 0.0 0.00 2.11 2.11 100 1009.1
20260507031057 4 0.0 0.0 0.00 2.11 2.11 100 1009.3
20260507030517 4 0.0 3.2 0.00 2.11 2.11 100 1009.2
20260507030017 4 0.0 0.0 0.00 2.11 2.11 100 1009.2
20260507025517 4 0.0 1.6 0.03 2.11 2.11 100 1009.3
20260507025017 4 0.0 1.6 0.03 2.11 2.11 100 1009.3
20260507024517 4 0.0 1.6 0.03 2.11 2.11 100 1009.3
20260507024017 4 0.0 1.6 0.03 2.11 2.11 100 1009.3
20260507023517 4 315 1.6 3.2 0.03 2.11 2.11 100 1009.3
20260507023017 4 0.0 3.2 0.03 2.11 2.11 100 1009.4
20260507022517 4 315 1.6 6.4 0.03 2.11 2.11 100 1009.3
20260507022017 4 315 1.6 4.8 0.03 2.11 2.11 100 1009.5
20260507021517 4 0.0 3.2 0.05 2.11 2.11 100 1009.4
20260507021017 4 293 1.6 3.2 0.05 2.11 2.11 100 1009.4
20260507020517 4 0.0 3.2 0.05 2.11 2.11 100 1009.4
20260507020017 4 0.0 1.6 0.08 2.11 2.11 100 1009.4
20260507015517 4 0.0 3.2 0.05 2.08 2.08 100 1009.5
20260507015017 4 0.0 1.6 0.05 2.08 2.08 100 1009.5
20260507014517 4 0.0 3.2 0.05 2.08 2.08 100 1009.5
20260507014017 4 315 1.6 3.2 0.05 2.08 2.08 100 1009.4
20260507013537 4 293 1.6 1.6 0.05 2.08 2.08 100 1009.3
20260507013017 4 293 1.6 3.2 0.05 2.08 2.08 100 1009.2
20260507012517 4 0.0 1.6 0.08 2.08 2.08 100 1009.1
20260507012017 4 315 3.2 8.0 0.08 2.08 2.08 100 1009.2
20260507011517 4 0.0 3.2 0.05 2.06 2.06 100 1009.2
20260507011017 4 315 1.6 4.8 0.08 2.06 2.06 100 1009.2
20260507010517 4 338 1.6 8.0 0.08 2.06 2.06 100 1009.2
20260507010017 4 293 1.6 3.2 0.05 2.03 2.03 100 1009.1
20260507005517 4 315 3.2 6.4 0.05 2.03 2.03 100 1009.2
20260507005017 4 315 1.6 6.4 0.05 2.03 2.03 100 1009.1
20260507004517 4 315 3.2 6.4 0.08 2.03 2.03 100 1009.1
20260507004017 4 315 3.2 6.4 0.08 2.03 2.03 100 1008.9
20260507003635 4 315 3.2 4.8 0.08 2.03 2.03 100 1008.8
20260507003017 4 0.0 3.2 0.08 2.03 2.03 100 1008.7
20260507002517 4 0.0 1.6 0.05 2.01 2.01 100 1008.7
20260507002037 4 0.0 1.6 0.05 2.01 2.01 100 1008.7
20260507001517 4 0.0 1.6 0.05 2.01 2.01 100 1008.5
20260507001017 4 0.0 0.0 0.03 1.98 1.98 100 1008.3
20260507000537 4 0.0 1.6 0.03 1.98 1.98 100 1008.4
20260507000017 5 0.0 1.6 0.03 1.98 1.98 100 1008.4
20260506235517 4 0.0 3.2 0.03 2.01 1.98 100 1008.3
20260506235017 4 315 1.6 4.8 0.03 2.01 1.98 99 1008.2
20260506234517 4 315 1.6 6.4 0.00 1.98 1.96 99 1008.0
20260506234037 4 315 1.6 4.8 0.00 1.98 1.96 99 1008.0
20260506233517 4 315 1.6 4.8 0.03 1.98 1.96 99 1007.8
20260506233017 4 315 3.2 9.7 0.03 1.98 1.96 99 1007.8
20260506232517 4 315 3.2 9.7 0.03 1.98 1.96 99 1007.9
20260506232017 4 315 6.4 12.9 0.05 1.98 1.96 99 1007.7
20260506231517 5 315 4.8 9.7 0.05 1.98 1.96 99 1007.4
20260506231037 5 315 4.8 9.7 0.05 1.98 1.96 99 1007.4
20260506230517 5 315 4.8 12.9 0.05 1.98 1.96 99 1007.4
20260506230017 5 315 3.2 6.4 0.05 1.98 1.96 99 1007.5
20260506225517 5 315 1.6 8.0 0.05 1.98 1.96 99 1007.5
20260506225017 5 0.0 3.2 0.05 1.98 1.96 99 1007.4
20260506224517 5 315 1.6 8.0 0.05 1.98 1.96 99 1007.3
20260506224017 5 0.0 3.2 0.05 1.98 1.96 99 1007.3
20260506223517 5 0.0 1.6 0.03 1.96 1.93 99 1007.3
20260506223017 6 0.0 1.6 0.03 1.96 1.93 99 1007.2
20260506222517 6 0.0 1.6 0.03 1.96 1.93 99 1007.1
20260506222017 6 225 1.6 3.2 0.03 1.93 1.91 99 1007.1
20260506221517 6 0.0 1.6 0.03 1.93 1.91 99 1007.0
20260506221037 6 0.0 1.6 0.03 1.93 1.91 99 1007.1
20260506220517 6 315 1.6 3.2 0.03 1.93 1.91 99 1007.1
20260506220017 6 0.0 1.6 0.03 1.93 1.91 99 1007.0
20260506215517 6 315 1.6 3.2 0.03 1.93 1.91 99 1006.8
20260506215017 6 315 1.6 4.8 0.03 1.93 1.91 99 1006.8
20260506214517 6 0.0 1.6 0.03 1.93 1.91 99 1006.6
20260506214017 6 293 1.6 3.2 0.03 1.93 1.91 99 1006.6
20260506213517 6 315 1.6 6.4 0.03 1.93 1.91 99 1006.5
20260506213037 6 0.0 1.6 0.03 1.93 1.91 99 1006.6
20260506212517 6 0.0 1.6 0.03 1.93 1.91 99 1006.6
20260506212017 6 0.0 1.6 0.00 1.91 1.88 99 1006.6
20260506211517 6 0.0 1.6 0.03 1.91 1.88 99 1006.6
20260506211017 6 0.0 3.2 0.03 1.91 1.88 99 1006.6
20260506210517 7 0.0 3.2 0.03 1.91 1.88 99 1006.7
20260506210017 7 0.0 3.2 0.05 1.91 1.88 99 1006.6
20260506205517 7 0.0 3.2 0.08 1.91 1.88 99 1006.7
20260506205017 7 0.0 3.2 0.10 1.91 1.88 99 1006.7
20260506204537 7 293 1.6 4.8 0.10 1.91 1.88 99 1006.6
20260506204037 7 293 1.6 4.8 0.10 1.91 1.88 99 1006.6
20260506203517 7 0.0 1.6 0.13 1.91 1.88 99 1006.5
20260506203019 7 0.0 1.6 0.13 1.91 1.88 99 1006.6
20260506202517 6 0.0 3.2 0.15 1.93 1.88 99 1006.5
20260506202017 6 0.0 3.2 0.15 1.96 1.88 99 1006.7
20260506201517 6 315 1.6 3.2 0.15 2.08 1.85 99 1006.8
20260506201017 6 315 1.6 6.4 0.18 2.11 1.85 99 1006.8
20260506200517 6 293 3.2 8.0 0.18 2.11 1.85 98 1006.9
20260506200017 7 293 3.2 8.0 0.18 2.08 1.83 98 1006.7
20260506195517 7 315 4.8 11.3 0.18 2.06 1.80 98 1006.7
20260506195037 7 315 8.0 12.9 0.15 2.03 1.78 98 1006.7
20260506194517 7 315 4.8 11.3 0.15 2.03 1.78 98 1006.6
20260506194017 7 315 3.2 6.4 0.15 2.03 1.78 98 1006.6
20260506193517 7 315 3.2 9.7 0.13 2.01 1.75 97 1006.7
20260506193017 8 338 3.2 9.7 0.15 2.01 1.75 97 1006.7
20260506192517 8 0.0 4.8 0.13 1.98 1.73 98 1006.6
20260506192017 8 315 3.2 6.4 0.13 1.98 1.73 98 1006.7
20260506191517 8 315 3.2 6.4 0.13 1.96 1.70 98 1006.6
20260506191017 8 315 4.8 8.0 0.10 1.93 1.68 98 1006.5
20260506190537 8 315 6.4 11.3 0.10 1.93 1.68 97 1006.6
20260506190018 9 315 6.4 9.7 0.08 1.91 1.65 97 1006.5
20260506185517 10 315 1.6 4.8 0.08 1.88 1.63 97 1006.4
20260506185037 10 338 3.2 8.0 0.10 1.88 1.63 95 1006.5
20260506184517 11 293 3.2 11.3 0.13 1.88 1.63 97 1006.5
20260506184017 11 315 3.2 4.8 0.18 1.88 1.63 95 1006.6
20260506183517 12 270 1.6 9.7 0.28 1.88 1.63 94 1006.7
20260506183017 13 158 1.6 4.8 0.30 1.85 1.60 96 1006.5
20260506182517 13 158 1.6 3.2 0.33 1.85 1.60 98 1006.5
20260506182017 13 158 1.6 6.4 0.38 1.85 1.60 98 1006.5
20260506181517 13 135 1.6 11.3 0.38 1.83 1.57 98 1006.5
20260506181017 13 90 3.2 8.0 0.43 1.83 1.57 99 1006.5
20260506180517 13 90 3.2 4.8 0.48 1.83 1.57 99 1006.5
20260506180017 13 90 3.2 6.4 0.51 1.83 1.57 99 1006.5
20260506175517 13 90 1.6 3.2 0.51 1.80 1.55 99 1006.7
20260506175017 13 113 3.2 4.8 0.53 1.78 1.52 99 1006.8
20260506174517 13 135 1.6 4.8 0.53 1.75 1.50 99 1006.9
20260506174017 13 90 1.6 3.2 0.53 1.70 1.45 99 1006.9
20260506173517 13 90 1.6 3.2 0.51 1.60 1.35 98 1007.0
20260506173017 13 90 3.2 4.8 0.48 1.55 1.30 99 1007.1
20260506172517 13 90 1.6 6.4 0.51 1.52 1.27 98 1007.3
20260506172017 13 135 1.6 4.8 0.48 1.47 1.22 98 1007.4
20260506171517 13 135 1.6 3.2 0.53 1.45 1.19 98 1007.5
20260506171017 13 0.0 0.0 0.51 1.40 1.14 98 1007.6
20260506170517 13 0.0 1.6 0.61 1.35 1.09 98 1007.7
20260506170017 13 0.0 3.2 0.58 1.32 1.07 98 1007.7
20260506165517 13 90 1.6 3.2 0.58 1.30 1.04 98 1007.7
20260506165017 13 135 1.6 6.4 0.56 1.24 0.99 98 1007.6
20260506164517 13 135 1.6 4.8 0.56 1.22 0.97 98 1007.8
20260506164017 13 225 1.6 4.8 0.53 1.17 0.91 98 1007.8
20260506163517 13 135 1.6 6.4 0.46 1.09 0.84 98 1007.5
20260506163017 13 0.0 1.6 0.46 1.07 0.81 98 1007.5
20260506162517 13 158 1.6 6.4 0.43 1.02 0.76 98 1007.5
20260506162017 13 158 1.6 8.0 0.41 0.99 0.74 98 1007.7
20260506161517 13 90 1.6 4.8 0.33 0.91 0.66 98 1007.6
20260506161017 13 158 1.6 3.2 0.33 0.89 0.64 98 1007.8
20260506160517 13 113 3.2 8.0 0.18 0.74 0.48 97 1007.7
20260506160017 13 113 3.2 3.2 0.18 0.74 0.48 97 1007.9
20260506155517 13 0.0 1.6 0.18 0.71 0.46 97 1007.9
20260506155037 13 0.0 1.6 0.15 0.69 0.43 97 1008.0
20260506154537 13 0.0 0.0 0.15 0.66 0.41 97 1008.1
20260506154037 13 0.0 1.6 0.13 0.64 0.38 97 1008.1
20260506153517 13 0.0 3.2 0.15 0.64 0.38 97 1008.3
20260506153017 13 0.0 0.0 0.13 0.61 0.36 97 1008.4
20260506152517 13 0.0 0.0 0.10 0.58 0.33 97 1008.5
20260506152017 13 0.0 1.6 0.13 0.58 0.33 97 1008.5
20260506151537 13 0.0 0.0 0.13 0.58 0.33 97 1008.6
20260506151017 13 0.0 0.0 0.10 0.56 0.30 98 1008.8
20260506150517 13 0.0 0.0 0.13 0.56 0.30 97 1008.8
20260506150017 13 0.0 0.0 0.13 0.56 0.30 97 1008.9
20260506145517 13 0.0 0.0 0.13 0.53 0.28 97 1008.9
20260506145037 13 0.0 0.0 0.13 0.53 0.28 97 1008.9
20260506144517 13 0.0 0.0 0.10 0.51 0.25 97 1008.9
20260506144017 13 0.0 0.0 0.10 0.51 0.25 97 1008.9
20260506143517 13 0.0 0.0 0.08 0.48 0.23 96 1009.0
20260506143017 13 0.0 0.0 0.10 0.48 0.23 96 1009.0
20260506142517 13 0.0 1.6 0.10 0.48 0.23 96 1009.0
20260506142037 13 0.0 0.0 0.08 0.46 0.20 96 1009.0
20260506141517 13 0.0 0.0 0.08 0.46 0.20 97 1008.9
20260506141037 13 0.0 0.0 0.08 0.46 0.20 96 1008.9
20260506140517 13 0.0 1.6 0.05 0.43 0.18 96 1009.0
20260506140017 13 315 1.6 6.4 0.05 0.43 0.18 95 1008.8
20260506135517 13 0.0 1.6 0.03 0.41 0.15 96 1008.9
20260506135018 13 0.0 0.0 0.03 0.41 0.15 97 1008.8
20260506134517 13 0.0 1.6 0.03 0.41 0.15 96 1008.8
20260506134017 13 0.0 3.2 0.03 0.41 0.15 96 1008.7
20260506133537 13 248 1.6 4.8 0.03 0.41 0.15 96 1008.7
20260506133037 13 0.0 1.6 0.00 0.38 0.13 96 1008.8
20260506132517 12 0.0 0.0 0.03 0.38 0.13 97 1008.8
20260506132017 12 0.0 1.6 0.03 0.38 0.13 97 1008.7
20260506131517 12 0.0 0.0 0.03 0.38 0.13 97 1008.9
20260506131017 12 0.0 0.0 0.03 0.38 0.13 97 1009.1
20260506130538 12 0.0 0.0 0.03 0.38 0.13 97 1009.0
20260506130018 12 0.0 1.6 0.03 0.38 0.13 97 1009.2
20260506125517 12 0.0 1.6 0.03 0.38 0.13 97 1009.2
20260506125017 12 0.0 1.6 0.03 0.38 0.13 97 1009.3
20260506124517 12 0.0 3.2 0.03 0.38 0.13 98 1009.3
20260506124017 12 0.0 3.2 0.03 0.38 0.13 98 1009.4
20260506123517 12 0.0 1.6 0.03 0.38 0.13 99 1009.3
20260506123017 12 0.0 0.0 0.03 0.38 0.13 99 1009.2
20260506122538 12 0.0 0.0 0.00 0.36 0.10 99 1009.0
20260506122017 12 0.0 0.0 0.00 0.36 0.10 100 1008.9
20260506121517 12 0.0 0.0 0.00 0.36 0.10 100 1009.0
20260506121017 12 0.0 0.0 0.00 0.36 0.10 100 1009.1
20260506120517 11 0.0 1.6 0.00 0.36 0.10 100 1009.1
20260506120017 11 0.0 1.6 0.00 0.36 0.10 100 1009.1
20260506115517 11 0.0 1.6 0.00 0.36 0.10 100 1009.2
20260506115017 11 135 1.6 4.8 0.00 0.36 0.10 100 1009.2
20260506114517 11 113 1.6 3.2 0.00 0.36 0.10 100 1009.2
20260506114017 11 135 1.6 3.2 0.00 0.36 0.10 100 1009.1
20260506113517 10 0.0 1.6 0.00 0.36 0.10 100 1009.2
20260506113017 10 0.0 0.0 0.00 0.36 0.10 100 1009.3
20260506112517 10 0.0 0.0 0.00 0.36 0.10 100 1009.3
20260506112038 10 0.0 3.2 0.00 0.36 0.10 100 1009.2
20260506111517 10 0.0 1.6 0.00 0.36 0.10 100 1009.0
20260506111017 10 0.0 0.0 0.00 0.36 0.10 100 1009.0
20260506110517 10 0.0 0.0 0.00 0.36 0.10 100 1008.8
20260506110017 10 0.0 0.0 0.00 0.36 0.10 100 1008.9
20260506105517 10 0.0 3.2 0.00 0.36 0.10 100 1008.8
20260506105017 9 0.0 0.0 0.00 0.36 0.10 100 1009.1
20260506104517 9 0.0 0.0 0.00 0.36 0.10 100 1009.1
20260506104017 9 0.0 0.0 0.00 0.36 0.10 100 1009.1
20260506103517 9 0.0 1.6 0.00 0.36 0.10 100 1009.1
20260506103017 9 0.0 0.0 0.00 0.36 0.10 100 1009.1
20260506102517 9 0.0 1.6 0.00 0.36 0.10 100 1009.1
20260506102018 8 0.0 0.0 0.00 0.36 0.10 99 1008.9
20260506101537 8 0.0 0.0 0.00 0.36 0.10 99 1009.0
20260506101017 8 0.0 0.0 0.00 0.36 0.10 99 1009.0
20260506100517 8 0.0 1.6 0.00 0.36 0.10 99 1009.0
20260506100037 8 0.0 1.6 0.00 0.36 0.10 99 1009.1
20260506095517 8 0.0 1.6 0.00 0.36 0.10 99 1009.2
20260506095017 8 0.0 0.0 0.00 0.36 0.10 99 1009.3
20260506094517 8 0.0 1.6 0.00 0.36 0.10 99 1009.1
20260506094017 8 0.0 3.2 0.00 0.36 0.10 99 1009.2
20260506093517 8 0.0 3.2 0.00 0.36 0.10 99 1009.2
20260506093017 9 0.0 0.0 0.00 0.36 0.10 99 1009.4
20260506092517 9 0.0 0.0 0.00 0.36 0.10 99 1009.2
20260506092017 9 0.0 1.6 0.00 0.36 0.10 99 1009.2
20260506091537 9 0.0 0.0 0.00 0.36 0.10 99 1009.2
20260506091017 9 0.0 0.0 0.00 0.36 0.10 99 1009.2
20260506090517 9 0.0 0.0 0.00 0.36 0.10 99 1009.4
20260506090017 9 0.0 0.0 0.00 0.36 0.10 99 1009.6
20260506085517 10 0.0 0.0 0.00 0.36 0.10 99 1009.5
20260506085017 10 0.0 0.0 0.00 0.36 0.10 99 1009.5
20260506084517 10 0.0 0.0 0.00 0.36 0.10 99 1009.6
20260506084015 10 0.0 0.0 0.00 0.36 0.10 99 1009.8
20260506083515 10 0.0 1.6 0.00 0.36 0.10 99 1009.7
20260506083015 10 113 1.6 1.6 0.00 0.36 0.10 99 1009.6
20260506082515 10 0.0 1.6 0.00 0.36 0.10 99 1009.9
20260506082015 10 0.0 0.0 0.00 0.36 0.10 99 1010.1
20260506081555 10 0.0 0.0 0.00 0.36 0.10 99 1010.0
20260506081056 10 0.0 0.0 0.00 0.36 0.10 99 1010.0
20260506080515 10 0.0 0.0 0.00 0.36 0.10 99 1010.0
20260506073515 11 0.0 0.0 0.00 0.36 0.10 99 1009.8
20260506073015 11 0.0 0.0 0.00 0.36 0.10 99 1009.8
20260506072515 11 0.0 0.0 0.00 0.36 0.10 99 1009.8
20260506072015 11 0.0 0.0 0.00 0.36 0.10 99 1009.7
20260506071515 11 0.0 0.0 0.00 0.36 0.10 99 1009.9
20260506071015 11 0.0 0.0 0.00 0.36 0.10 99 1009.9
20260506070536 11 0.0 0.0 0.00 0.36 0.10 99 1010.0
20260506062019 12 0.0 0.0 0.00 0.36 0.10 98 1010.1
20260506061519 12 0.0 0.0 0.00 0.36 0.10 98 1010.1
20260506061019 12 0.0 1.6 0.03 0.36 0.10 98 1010.1
20260506060519 12 0.0 0.0 0.05 0.36 0.10 98 1010.1
20260506051036 12 293 1.6 6.4 0.08 0.33 0.08 99 1010.7
20260506050535 12 0.0 3.2 0.05 0.30 0.05 99 1010.5